Regional Weather Roundup
Issued by NWS

Home | Current Version | Previous Version | Graphics & Text | Print | Product List | Glossary Off
Versions: 1 2 3 4 5 6 7 8 9 10 11 12 13 14 15 16 17 18 19 20 21 22 23 24 25 26 27 28 29 30 31 32 33 34 35 36 37 38 39 40 41 42 43 44 45 46 47 48 49 50

000
ASUS43 KMKX 031611
RWRWI

WISCONSIN REGIONAL WEATHER ROUNDUP
NATIONAL WEATHER SERVICE MILWAUKEE/SULLIVAN WI
1000 AM CST TUE MAR 03 2015

NOTE: "FAIR" INDICATES FEW OR NO CLOUDS BELOW 12,000 FEET WITH NO
SIGNIFICANT WEATHER AND/OR OBSTRUCTIONS TO VISIBILITY.

WIZ001-002-006>008-014>016-023>028-031700-
NORTHWEST WISCONSIN

CITY           SKY/WX    TMP DP  RH WIND       PRES   REMARKS
SUPERIOR ARPT  LGT SNOW  21  19  91 SW9       29.66F VSB 3/4 WCI  11
ASHLAND        SNOW      21  19  92 S8        29.66F VSB 1/4 WCI  11
HAYWARD        HVY SNOW  20  17  88 S5        29.63F VSB 1/4 WCI  13
SIREN          SNOW      21  19  91 S3        29.66F VSB 1/2
CUMBERLAND     LGT SNOW  21  18  86 S6        29.64F VSB 3/4 WCI  14
RICE LAKE      LGT SNOW  21  18  89 SE6       29.68F VSB 1   WCI  13
CHETEK         LGT SNOW  21  19  90 CALM      29.67F VSB 3/4
LADYSMITH      LGT SNOW  22  19  89 S6        29.68F VSB 3/4 WCI  14
EAU CLAIRE     LGT SNOW  22  19  89 CALM      29.67F VSB 3/4
MENOMONIE      SNOW      24  20  88 E3        29.66F VSB 1/2
NEW RICHMOND   LGT SNOW  22  19  87 S5        29.65F WCI  16
OSCEOLA        LGT SNOW  22  22  99 S3        29.69F
$$

WIZ003>005-009-010-017-018-031700-
NORTH CENTRAL WISCONSIN

CITY           SKY/WX    TMP DP  RH WIND       PRES   REMARKS
MANITOWISH WTR SNOW      18  16  90 S8        29.63F VSB 1/2 WCI   8
ARBOR VITAE    SNOW      20  17  87 S6        29.63F VSB 1/2 WCI  12
WOODRUFF       SNOW      20  17  87 S6        29.63F VSB 1/2 WCI  12
RHINELANDER    SNOW      19  16  88 S7        29.63F VSB 1/4 WCI  10
EAGLE RIVER    SNOW      19  15  84 S5        29.64F VSB 1/2 WCI  13
LAND O LAKES   SNOW      20  16  86 S3        29.64F VSB 1/2
PHILLIPS       LGT SNOW  19  16  89 S7        29.64F VSB 1   WCI  10
TOMAHAWK       HVY SNOW  20  17  87 CALM      29.65F VSB 1/4
MEDFORD        MIX PCPN  20  17  89 S5        29.64F VSB 1/2 WCI  13
MERRILL        SNOW      21  19  91 CALM      29.66F VSB 1/4
$$

WIZ029-030-035-036-043>047-031700-
CENTRAL WISCONSIN

CITY           SKY/WX    TMP DP  RH WIND       PRES   REMARKS
WAUSAU         LGT SNOW  21  19  92 S8        29.65F FOG     WCI  11
MOSINEE        CLOUDY    21  21 100 S7        29.67F WCI  13
MARSHFIELD     LGT SNOW  22  19  89 S9        29.65F FOG     WCI  12
STEVENS POINT  CLOUDY    21  19  93 S3        29.66F FOG
WAUPACA        MIX PCPN  27  23  85 S6        29.69F WCI  20
WAUTOMA        FOG       25  23  91 S5        29.68F VSB 1   WCI  19
WISC RAPIDS    CLOUDY    22  19  89 S6        29.68F FOG     WCI  14
CAMP DOUGLAS   FRZ RAIN  23  23 100 S1        29.67F FOG
$$

WIZ011>013-019>022-031-037>040-048>050-031700-
NORTHEAST WISCONSIN

CITY           SKY/WX    TMP DP  RH WIND       PRES   REMARKS
ANTIGO         LGT SNOW  19  17  92 S6        29.64F WCI  11
SHAWANO        MIX PCPN  27  23  86 CALM      29.70F
OCONTO         CLOUDY    27  26  99 S8        29.70F VSB 1/2 WCI  18
STURGEON BAY   CLOUDY    28  25  86 S15G21    29.72F WCI  17
GREEN BAY      CLOUDY    26  24  92 S9        29.69F FOG     WCI  17
MANITOWOC      LGT SNOW  29  27  92 S16G26    29.70F VSB 3/4 WCI  17
APPLETON       LGT SNOW  25  23  93 S9        29.69F WCI  15
CLINTONVILLE   LGT SNOW  27  23  86 S6        29.69F WCI  20
OSHKOSH        SNOW      26  23  88 S9        29.68F VSB 1/2 WCI  17
$$

WIZ032>034-041-042-053>061-031700-
SOUTHWEST WISCONSIN

CITY           SKY/WX    TMP DP  RH WIND       PRES   REMARKS
LA CROSSE      CLOUDY    26  23  88 S6        29.69F FOG     WCI  19
SPARTA         MIX PCPN  24  23  94 CALM      29.69F
VIROQUA        CLOUDY    24  24 100 S7        29.65F WCI  16
BOSCOBEL       CLOUDY    27  24  89 CALM      29.68F FOG
PRAIRIE DU CHI CLOUDY    26  25  93 CALM      29.68F FOG
PLATTEVILLE    CLOUDY    29  28  94 S14       29.67F WCI  19
$$

WIZ056-057-062-063-064-067-068-031700-
SOUTH CENTRAL WISCONSIN

CITY           SKY/WX    TMP DP  RH WIND       PRES   REMARKS
REEDSBURG      MIX PCPN  24  22  95 CALM      29.67F
BARABOO/DELLS  CLOUDY    24  22  91 S5        29.67F FOG     WCI  18
LONE ROCK      FOG       25  23  92 CALM      29.68F VSB 1
MINERAL POINT  CLOUDY    30  28  93 S9        29.65F FOG     WCI  22
MADISON        FRZ DRZL  26  24  92 S9        29.67F FOG     WCI  17
MIDDLETON      CLOUDY    29  27  90 S9        29.67F WCI  21
WATERTOWN      MIX PCPN  26  25  97 S7        29.67F WCI  18
MONROE         MIX PCPN  30  30 100 S21G26    29.66S WCI  17
JANESVILLE     FOG       30  28  93 S12       29.68  VSB 1   WCI  21
$$

WIZ051-052-058>065-066-070>072-031700-
SOUTHEAST WISCONSIN

CITY           SKY/WX    TMP DP  RH WIND       PRES   REMARKS
MILWAUKEE      LGT SNOW  29  25  85 S14       29.69F VSB 1   WCI  18
WAUKESHA       LGT SNOW  25  23  93 SE12      29.68F WCI  14
MILWAUKEE/TIMM LGT SNOW  27  23  86 S8        29.72F WCI  18
RACINE         FRZ RAIN  29  27  92 S14G25    29.70F FOG     WCI  18
BURLINGTON     CLOUDY    28  27  94 S10       29.67F FOG     WCI  19
KENOSHA        FRZ RAIN  29  27  92 S14       29.69F VSB 1   WCI  18
FOND DU LAC    SNOW      26  23  88 S9        29.68F VSB 1/2 WCI  17
SHEBOYGAN      SNOW      28  25  88 S16G25    29.70F VSB 1/2 WCI  16
WEST BEND      LGT SNOW  28  25  86 SE6       29.68F VSB 3/4 WCI  22
JUNEAU         LGT SNOW  25  23  91 SE10      29.69F VSB 1   WCI  15
$$

LSZ147-162-031700-
LAKE SUPERIOR

STATION/POSITION TIME  TEMP    WIND        PRES    WAVE
                       AIR SEA DIR/SP/G            HT/PER
                 (UTC) (F)     (DEG/KT/KT) (MB)    (FT/S)
DEVILS ISLAND    1600   21     190/  7/  9 1004.9F
PORT WING        1500   22     190/  7/ 12 1005.1
SAXON HARBOR     1540   23     190/  5/ 10 1004.7F
$$

LMZ867-665-643>646-031700-
LAKE MICHIGAN

STATION/POSITION TIME  TEMP    WIND        PRES    WAVE
                       AIR SEA DIR/SP/G            HT/PER
                 (UTC) (F)     (DEG/KT/KT) (MB)    (FT/S)
NORTHPORT PIER   1506   27     160/ 11/ 22 1008.1F
SISTER BAY       1413   29     180/ 17/ 20   N/A
KEWAUNEE LAKESHO 1500   28     190/ 17/ 22   N/A
SHEBOYGAN LAKESH 1600   28     160/ 27/ 31 1006.3F
PORT WASHINGTON  1501   29     170/ 20/ 24 1008.5F
MILWAUKEE LAKESH 1500   28     150/ 23/ 26   N/A
KENOSHA   LAKESH 1600   29     180/ 11/ 15 1005.8F
$$

TC  - TEMPERATURE IN CELSIUS
VSB - VISIBILITY IN STATUTE MILES
WCI - WIND CHILL INDEX
HX  - HEAT INDEX




USA.gov is the U.S. government's official web portal to all federal, state and local government web resources and services.